Weather History for North Myrtle Beach, SC

Change the Weather History Date:

Thursday, January 31, 2013

  Actual Average Record
Temperature  
Mean Temperature 53 °F 46 °F  
Max Temperature 65 °F 55 °F 75 °F (1950)
Min Temperature 41 °F 37 °F 17 °F (1952)
Degree Days  
Heating Degree Days 12 19  
Month to date heating degree days 428 600  
Since 1 July heating degree days 1289 1468  
Cooling Degree Days 0 0  
Month to date cooling degree days 2 0  
Year to date cooling degree days 2 0  
Growing Degree Days 2 (Base 50)    
Moisture  
Dew Point 37 °F    
Average Humidity 60    
Maximum Humidity 93    
Minimum Humidity 26    
Precipitation  
Precipitation 0.20 in 0.16 in 0.37 in (2006)
Month to date precipitation 0.64 3.69  
Year to date precipitation 0.64 3.69  
Sea Level Pressure  
Sea Level Pressure 29.86 in    
Wind  
Wind Speed 12 mph (West)    
Max Wind Speed 30 mph    
Max Gust Speed 37 mph    
Visibility 9 miles    
Events Rain    
T = Trace of Precipitation, MM = Missing Value Source: NWS Daily Summary

Daily Weather History Graph

Daily Weather History Graph

Search for Another Location

Airport:

Trip Planner

Search our weather history database for the weather conditions in past years. The results will help you decide how hot, cold, wet, or windy it might be!

Date:

Astronomy

Jan. 31, 2013 Rise Set
Actual Time 7:12 AM EST 5:45 PM EST
Civil Twilight 6:45 AM EST 6:11 PM EST
Nautical Twilight 6:16 AM EST 6:41 PM EST
Astronomical Twilight 5:46 AM EST 7:10 PM EST
Moon 10:27 PM EST (1/31) 9:26 AM EST (1/31)
Length of Visible Light 11h 25m
Length of Day
10h 32m
Waning Gibbous, 80% of the Moon is Illuminated
Jan 31
Waning Gibbous
Feb 3
Last Quarter
Feb 10
New
Feb 17
First Quarter
Feb 25
Full

Hourly Weather History & Observations

Time (EST) Temp. Windchill Dew Point Humidity Pressure Visibility Wind Dir Wind Speed Gust Speed Precip Events Conditions
12:51 AM 62.6 °F - 60.8 °F 94% 29.65 in 2.5 mi West 20.7 mph 34.5 mph 0.08 in Rain Rain
12:53 AM 63.0 °F - 60.1 °F 90% 29.65 in 1.8 mi West 20.7 mph 34.5 mph 0.13 in Rain Heavy Rain
12:59 AM 60.8 °F - 57.2 °F 88% 29.65 in 2.0 mi West 21.9 mph 32.2 mph 0.01 in Rain Light Rain
1:03 AM 60.8 °F - 55.4 °F 82% 29.66 in 5.0 mi West 19.6 mph 32.2 mph 0.01 in Rain Light Rain
1:08 AM 59.0 °F - 55.4 °F 88% 29.66 in 9.0 mi West 18.4 mph 35.7 mph 0.01 in Rain Light Rain
1:53 AM 55.9 °F - 53.1 °F 90% 29.67 in 7.0 mi West 10.4 mph 27.6 mph 0.02 in Rain Light Rain
2:53 AM 53.1 °F - 48.0 °F 83% 29.71 in 10.0 mi WSW 12.7 mph 21.9 mph 0.05 in Rain Light Rain
3:53 AM 54.0 °F - 46.0 °F 75% 29.72 in 10.0 mi West 12.7 mph 23.0 mph 0.00 in   Overcast
4:53 AM 53.1 °F - 46.9 °F 80% 29.74 in 10.0 mi WSW 15.0 mph 23.0 mph N/A   Partly Cloudy
5:35 AM 53.6 °F - 46.4 °F 77% 29.75 in 10.0 mi WSW 11.5 mph 23.0 mph N/A   Overcast
5:53 AM 53.1 °F - 46.9 °F 80% 29.76 in 10.0 mi WSW 12.7 mph 19.6 mph N/A   Overcast
6:21 AM 51.8 °F - 37.4 °F 58% 29.79 in 10.0 mi West 15.0 mph 27.6 mph N/A   Scattered Clouds
6:53 AM 48.9 °F - 32.0 °F 52% 29.82 in 10.0 mi WSW 17.3 mph 29.9 mph N/A   Clear
7:53 AM 48.0 °F - 32.0 °F 54% 29.89 in 10.0 mi West 15.0 mph 23.0 mph N/A   Clear
8:53 AM 48.0 °F - 32.0 °F 54% 29.91 in 10.0 mi West 15.0 mph 26.5 mph N/A   Clear
9:53 AM 48.9 °F - 30.9 °F 50% 29.94 in 10.0 mi West 16.1 mph 24.2 mph N/A   Clear
10:53 AM 51.1 °F - 30.0 °F 44% 29.95 in 10.0 mi West 13.8 mph 23.0 mph N/A   Clear
11:53 AM 52.0 °F - 30.0 °F 43% 29.95 in 10.0 mi West 16.1 mph 21.9 mph N/A   Clear
12:53 PM 54.0 °F - 27.0 °F 35% 29.94 in 10.0 mi WNW 10.4 mph 24.2 mph N/A   Clear
1:53 PM 54.0 °F - 24.1 °F 31% 29.92 in 10.0 mi West 10.4 mph 21.9 mph N/A   Clear
2:53 PM 55.0 °F - 23.0 °F 29% 29.93 in 10.0 mi WSW 17.3 mph 25.3 mph N/A   Clear
3:53 PM 55.9 °F - 21.0 °F 26% 29.95 in 10.0 mi WSW 11.5 mph 23.0 mph N/A   Clear
4:53 PM 54.0 °F - 19.0 °F 25% 29.98 in 10.0 mi West 13.8 mph 21.9 mph N/A   Clear
5:53 PM 51.1 °F - 21.0 °F 31% 30.02 in 10.0 mi WNW 6.9 mph - N/A   Clear
6:53 PM 48.0 °F - 21.9 °F 36% 30.05 in 10.0 mi WSW 4.6 mph - N/A   Clear
7:53 PM 46.0 °F 43.9 °F 23.0 °F 40% 30.08 in 10.0 mi WSW 4.6 mph - N/A   Clear
8:53 PM 42.1 °F - 28.9 °F 60% 30.09 in 10.0 mi Calm Calm - N/A   Clear
11:53 PM 43.0 °F 38.8 °F 24.1 °F 47% 30.13 in 10.0 mi West 6.9 mph - N/A   Clear